Regional Weather Roundup
Issued by NWS

Home | Current Version | Previous Version | Graphics & Text | Print | Product List | Glossary On
Versions: 1 2 3 4 5 6 7 8 9 10 11 12 13 14 15 16 17 18 19 20 21 22 23 24 25 26 27 28 29 30 31 32 33 34 35 36 37 38 39 40 41 42 43 44 45 46 47 48 49 50
042
ASUS43 KBIS 221102
RWRND

NORTH DAKOTA REGIONAL WEATHER ROUNDUP
NATIONAL WEATHER SERVICE BISMARCK ND
600 AM CDT SUN OCT 22 2017

NOTE: "FAIR" INDICATES FEW OR NO CLOUDS BELOW 12,000 FEET WITH NO
SIGNIFICANT WEATHER AND/OR OBSTRUCTIONS TO VISIBILITY.


NDZ001>003-009>011-017-221200-
NORTHWEST NORTH DAKOTA

CITY           SKY/WX    TMP DP  RH WIND       PRES   REMARKS
WILLISTON      CLEAR     33  25  72 SW6       29.78S
MINOT          CLEAR     38  29  70 SW10      29.76F
MINOT AFB      CLEAR     33  27  77 W10       29.74F
$$

NDZ018>021-031>035-040>046-221200-
SOUTHWEST NORTH DAKOTA

CITY           SKY/WX    TMP DP  RH WIND       PRES   REMARKS
BISMARCK       CLEAR     37  27  67 SW7       29.87R
DICKINSON      CLEAR     36  21  54 SW13      29.82F
GARRISON         N/A     35  31  85 W8        29.80F
HETTINGER ARPT CLEAR     30  19  63 W5        29.90S
$$

NDZ004>008-012>016-024-026-027-054-221200-
NORTHEAST NORTH DAKOTA

CITY           SKY/WX    TMP DP  RH WIND       PRES   REMARKS
GRAND FORKS    CLEAR     43  35  73 SW14      29.75R
GRND FRKS AFB  CLEAR     41  33  72 W12       29.75R
DEVILS LAKE    CLEAR     41  34  76 W18       29.76R
$$

NDZ022-023-025-028>030-036>039-047>053-221200-
SOUTHEAST NORTH DAKOTA

CITY           SKY/WX    TMP DP  RH WIND       PRES   REMARKS
FARGO          CLEAR     42  35  76 SW10      29.84R
JAMESTOWN      CLEAR     39  30  70 W12       29.83R
$$





USA.gov is the U.S. government's official web portal to all federal, state and local government web resources and services.